Location: *
(45.9500°N, 9.0833°E)
Time: 20:32:54
(UTC+00:00)

Tiros 1 - Pass Details

Date: 21 June 2021
Orbit: 630 x 664 km, 48.4° (Epoch: 05 August)

Event Time Altitude Azimuth Distance (km) Brightness Sun altitude
Rises 13:21:04 0° 287° (WNW) 2,943 10.8 57.6°
Reaches altitude 10° 13:23:23 10° 288° (WNW) 2,038 10.2 57.3°
Maximum altitude 13:28:05 89° 208° (SSW) 652 8.4 56.6°
Drops below altitude 10° 13:32:51 10° 110° (ESE) 2,055 9.6 55.9°
Sets 13:35:11 0° 110° (ESE) 2,970 10.3 55.5°
